Location: Newark
(12.4436°N, 0.6167°W)
Time: 05:20:25
(UTC+00:00)

deb Explorer IX - Pass Details

Date: 16 December 2019
Orbit: 548 x 1101 km, 38.8° (Epoch: 18 January)

Event Time Altitude Azimuth Distance (km) Brightness Sun altitude
Rises 10:28:07 0° 210° (SSW) 2,698 ? 48.0°
Reaches altitude 10° 10:30:33 10° 199° (SSW) 1,804 ? 48.3°
Maximum altitude 10:34:07 29° 138° (SE) 1,034 ? 48.8°
Drops below altitude 10° 10:37:50 10° 77° (ENE) 1,893 ? 49.2°
Sets 10:40:27 0° 66° (ENE) 2,858 ? 49.5°
